Regional Weather Roundup
Issued by NWS

Home | Current Version | Previous Version | Text Only | Print | Product List | Glossary Off
Versions: 1 2 3 4 5 6 7 8 9 10 11 12 13 14 15 16 17 18 19 20 21 22 23 24 25 26 27 28 29 30 31 32 33 34 35 36 37 38 39 40 41 42 43 44 45 46 47 48 49 50

000
ASUS43 KMPX 200010
RWRMN
WEATHER ROUNDUP FOR MINNESOTA
NATIONAL WEATHER SERVICE TWIN CITIES/CHANHASSEN MN
700 PM CDT SAT APR 19 2014


NOTE: "FAIR" INDICATES FEW OR NO CLOUDS BELOW 12,000 FEET WITH NO
SIGNIFICANT WEATHER AND/OR OBSTRUCTIONS TO VISIBILITY. N/A MEANS
CURRENT SKY AND/OR WEATHER CONDITIONS ARE NOT AVAILABLE.

MNZ060>063-068>070-200100-
   Twin Cities Metro

CITY           SKY/WX    TMP DP  RH WIND       PRES   REMARKS
TWIN CITIES    CLOUDY    60  52  74 SE14      29.97F
6HR MIN TEMP:  57; 6HR MAX TEMP:  67; 6HR PCP: TRACE;

ST PAUL        CLOUDY    54  50  86 S12       29.99F
CRYSTAL        CLOUDY    64  48  56 S5        29.96S
BLAINE         PTSUNNY   63  48  59 SE12      29.97S
EDEN PRAIRIE   CLOUDY    61  52  72 SE7       29.95F
6HR MIN TEMP:  61; 6HR MAX TEMP:  69; 6HR PCP:  0.01;

LAKEVILLE      LGT RAIN  55  54  94 CALM      30.01R
SOUTH ST PAUL  LGT RAIN  59  51  75 SE10      29.99F
LAKE ELMO      RAIN      55  50  82 SE13      30.00F
$$
MNZ001>005-007-008-013>017-022>024-027-028-200100-
   Northwest Minnesota

CITY           SKY/WX    TMP DP  RH WIND       PRES   REMARKS
BEMIDJI        SUNNY     62  32  32 W13G21    29.91R
HALLOCK        CLOUDY    54  39  58 W14       29.90R
ROSEAU         CLOUDY    54  43  66 W14G21    29.88R
WARROAD        PTSUNNY   54  43  66 W14       29.87R
THIEF RVR FALL SUNNY     55  39  54 W21       29.92R
CROOKSTON      SUNNY     57  41  54 NW17G25   29.93R
FOSSTON        SUNNY     63  34  34 W12G18    29.92S
DETROIT LAKES  SUNNY     63  30  29 W9        29.95S
MOORHEAD       SUNNY     66  21  18 SW12G18   29.93R
PARK RAPIDS    SUNNY     62  31  31 W13       29.94R
$$
MNZ006-009>011-018-025>026-200100-
   North Central Minnesota

CITY           SKY/WX    TMP DP  RH WIND       PRES   REMARKS
BAUDETTE       CLOUDY    56  39  53 W9G20     29.87R
FLAG ISLAND    CLOUDY    52  37  58 SW14      29.83R
INTL FALLS     SUNNY     60  30  32 SW10G21   29.86R
6HR MIN TEMP:  41; 6HR MAX TEMP:  62;

WASKISH        SUNNY     50  36  57 SW14G20   29.89R
BIG FORK       SUNNY     63  30  29 SW10      29.90R
LONGVILLE      SUNNY     64  28  25 SW8       29.93R
GRAND RAPIDS   SUNNY     57  41  54 S14       29.93R
CRANE LAKE     SUNNY     50  46  87 S6        29.91S
ORR            SUNNY     55  37  50 S10       29.87S
COOK           SUNNY     54  39  58 S6        29.91S
$$
MNZ012-019>021-037-200100-
   Northeast Minnesota

CITY           SKY/WX    TMP DP  RH WIND       PRES   REMARKS
DULUTH         PTCLDY    42  32  67 SE8       29.99S
6HR MIN TEMP:  36; 6HR MAX TEMP:  44; 6HR PCP: TRACE;

ELY            CLEAR     46  36  66 S10       29.94F
HIBBING        SUNNY     58  40  51 S8G18     29.93R
EVELETH        CLEAR     54  37  54 S12G17    29.95S
DULUTH HARBOR  CLOUDY    34  30  86 CALM      30.04S
TWO HARBORS    CLEAR     41  30  65 E3        29.99S
SILVER BAY     PTCLDY    37  36  93 NE3       30.00S
GRAND MARAIS     N/A     37  32  82 E5        30.05S
G MARAIS ARPRT PTCLDY    36  28  75 CALM      30.02S
$$
MNZ029>031-032-039>041-046>048-054>057-064-200100-
   West Central Minnesota

CITY           SKY/WX    TMP DP  RH WIND       PRES   REMARKS
FERGUS FALLS   SUNNY     64  27  24 W10       29.92R
WHEATON        MOSUNNY   70  36  28 W8        29.97R
MORRIS         MOSUNNY   68  30  24 W10       29.96R
ALEXANDRIA     MOSUNNY   65  30  27 W9        29.97R
ELBOW LAKE     FAIR      65  32  29 NW9       29.96R
WADENA         SUNNY     63  34  34 W9        29.95R
GLENWOOD       MOSUNNY   66  30  26 SW7       29.98R
APPLETON       MOSUNNY   66  30  26 SW6       29.97S
BENSON         MOSUNNY   64  36  34 SW7       29.98R
ORTONVILLE     MOSUNNY   68  27  21 W7        29.97R
MADISON        MOSUNNY   68  37  32 S8        29.98S
WILLMAR        FAIR      63  43  48 W6        30.00S
$$
MNZ033>034-036-042>043-049>051-058-059-200100-
   Central Minnesota

CITY           SKY/WX    TMP DP  RH WIND       PRES   REMARKS
ST CLOUD       PTSUNNY   60  48  64 S6        29.97R
6HR MIN TEMP:  51; 6HR MAX TEMP:  63; 6HR PCP:  0.01;

SAUK CENTRE    FAIR      64  39  40 S9        29.97S
PAYNESVILLE    PTSUNNY   61  38  43 CALM      29.99R
AITKIN         SUNNY     61  45  55 S10       29.94R
PINE RIVER     SUNNY     64  36  34 SW7       29.97R
BRAINERD       SUNNY     70  24  17 W12       29.94R
STAPLES        SUNNY     63  28  27 W9        29.95R
LONG PRAIRIE   FAIR      64  30  27 SW8       29.97R
LITTLE FALLS   MOSUNNY   63  39  42 S8        29.96R
LITCHFIELD       N/A     61  46  59 CALM      30.00R
BUFFALO        CLOUDY    60  45  57 W6        30.00R
MAPLE LAKE     PTSUNNY   60  48  65 CALM      30.00R
$$
MNZ037-044-045-052-053-200100-
   East Central Minnesota

CITY           SKY/WX    TMP DP  RH WIND       PRES   REMARKS
PRINCETON      PTSUNNY   54  46  76 CALM      29.98S
MORA           PTSUNNY   54  41  62 CALM      30.00R
CAMBRIDGE      CLOUDY    55  43  62 CALM      29.97S
RUSH CITY      CLOUDY    48  40  72 CALM      29.99S
HINCKLEY       FAIR      52  41  66 CALM      29.99S
CLOQUET        PTCLDY    46  34  61 E5        29.98S
MCGREGOR       MOSUNNY   57  43  58 S9        29.95S
$$
MNZ071>073-080-081-089-090-097-098-200100-
   Southwest Minnesota

CITY           SKY/WX    TMP DP  RH WIND       PRES   REMARKS
MONTEVIDEO     MOSUNNY   64  41  42 SW5       29.99S
GRANITE FALLS  PTSUNNY   60  46  59 W3        30.00S
CANBY          PTSUNNY   63  37  38 SW7       30.00S
MARSHALL       CLOUDY    64  37  36 NW9       29.99R
REDWOOD FALLS  CLOUDY    63  38  39 N6        29.99S
OLIVIA         PTSUNNY   59  45  58 CALM      29.99S
PIPESTONE      CLOUDY    64  36  34 N5        30.00S
WINDOM         CLOUDY    63  46  55 N8        29.99F
WORTHINGTON    CLOUDY    66  39  37 N7        30.02R
JACKSON        LGT RAIN  64  48  55 N8G21     30.00R
TRACY          CLOUDY    64  40  40 CALM      30.00R
SLAYTON        CLOUDY    63  33  32 N3        30.01R
$$
MNZ065>067-074>077-082>085-091>093-200100-
   South Central Minnesota

CITY           SKY/WX    TMP DP  RH WIND       PRES   REMARKS
MANKATO        CLOUDY    61  54  77 N6        29.99R
NEW ULM        CLOUDY    63  48  59 N9        29.99R
ST JAMES       RAIN      63  52  67 N10       29.99R
FAIRMONT       CLOUDY    70  46  43 W6        29.99S
GLENCOE        LGT RAIN  63  47  57 NW6       29.99R
FARIBAULT      LGT RAIN  63  50  63 CALM      30.01R
OWATONNA       RAIN      64  52  63 SW6       30.00R
WASECA         DRIZZLE   63  52  67 CALM      30.01R
ALBERT LEA     CLOUDY    72  45  37 S14         N/A
$$
MNZ078>079-086>088-094>096-200100-
   Southeast Minnesota

CITY           SKY/WX    TMP DP  RH WIND       PRES   REMARKS
ROCHESTER      MOCLDY    67  45  45 S17       30.01F
6HR MIN TEMP:  60; 6HR MAX TEMP:  69;

RED WING       CLOUDY    70  43  37 S9        29.98S
STANTON        RAIN      62  51  66 NW8       30.00R
DODGE CENTER   MOCLDY    68  45  42 S14       30.00R
WINONA           N/A    N/A N/A N/A MISG        N/A
AUSTIN         MOCLDY    70  43  37 S13       30.00S
PRESTON        MOCLDY    67  43  41 S14       30.05S
$$
ABBREVIATIONS USED IN REMARKS
   TC - TEMPERATURES IN CELSIUS
  WCI - WIND CHILL INDEX
   HX - HEAT INDEX
  VSB - VISIBILITY
$$


USA.gov is the U.S. government's official web portal to all federal, state and local government web resources and services.